Location: Beang
(6.6177°N, 10.9863°W)
Time: 14:00:47
(UTC+00:00)

Fermi - Pass Details

Date: 07 June 2020
Orbit: 524 x 540 km, 25.6° (Epoch: 07 July)

Event Time Altitude Azimuth Distance (km) Brightness Sun altitude
Exits shadow 05:35:59 - 302° (WNW) 2,309 6.7 -12.6°
Reaches altitude 10° 05:37:22 10° 304° (NW) 1,767 6.1 -12.3°
Maximum altitude 05:41:25 63° 26° (NNE) 589 4.2 -11.4°
Drops below altitude 10° 05:45:27 10° 107° (ESE) 1,758 7.1 -10.5°
Sets 05:47:43 0° 110° (ESE) 2,644 8.0 -10.0°
